Tracking 20241 objects as of 27-Jan-2020
HD Live streaming from Space Station
objects crossing your sky now

MOLNIYA 3-8

Track MOLNIYA 3-8 now!
MOLNIYA 3-8 is classified as:


NORAD ID: 10455
Int'l Code: 1977-105A
Perigee: 1,013.3 km
Apogee: 39,319.9 km
Inclination: 62.3 °
Period: 717.1 minutes
Semi major axis: 26537 km
RCS: 13.5006 m2 (large)
Launch date: October 28, 1977
Source: Commonwealth of Independent States (former USSR) (CIS)
Launch site: PLESETSK MISSILE AND SPACE COMPLEX (PKMTR)
aabbcc
Your satellite tracking list
Your tracking list is empty




NASA's NSSDC Master Catalog

Two Line Element Set (TLE):
1 10455U 77105A   20026.35804707  .00000600  00000-0 -12777-2 0  9992
2 10455  62.2834 131.2159 7217420 275.3791  13.5355  2.00821497309547
Source of the keplerian elements: AFSPC